WZZ6MS LHBP-LGZA

Flight info

Callsign WZZ6MS
Flight time N/A
Altitude 33000
Route FAHAZ DCT KEROP DCT TADAM DCT AKIKA DCT LIMJA DCT PITAS UN732 KRK UT321 ASTUS
Aircraft A321/M-SDE1E2E3FGIJ1J4RWXY/LB1

Departure

Time N/A
Airport Budapest Liszt Ferenc International Airport (LHBP)

Arrival

Time 2026-04-22 15:09
Airport Zakynthos International Airport Dionysios Solomos (LGZA)
Time Latitude Longitude Altitude Speed Heading
2026-04-22 13:54 45.81890 19.63737 33140 ft 455 kts 187°
2026-04-22 13:54 45.75576 19.62721 33138 ft 455 kts 187°
2026-04-22 13:55 45.69249 19.61711 33139 ft 456 kts 187°
2026-04-22 13:55 45.62946 19.60695 33138 ft 456 kts 188°
2026-04-22 13:56 45.56643 19.59674 33143 ft 456 kts 188°
2026-04-22 13:56 45.50336 19.58666 33147 ft 456 kts 188°
2026-04-22 13:57 45.44036 19.57669 33137 ft 456 kts 188°
2026-04-22 13:57 45.37735 19.56675 33142 ft 457 kts 188°
2026-04-22 13:58 45.31387 19.55665 33147 ft 457 kts 188°
2026-04-22 13:58 45.25056 19.54694 33144 ft 458 kts 186°
2026-04-22 13:59 45.18664 19.54726 33149 ft 459 kts 181°
2026-04-22 13:59 45.12239 19.54870 33155 ft 459 kts 181°
2026-04-22 14:00 45.05847 19.55018 33159 ft 459 kts 181°
2026-04-22 14:00 44.99457 19.55155 33163 ft 459 kts 181°
2026-04-22 14:01 44.93070 19.55301 33164 ft 459 kts 181°
2026-04-22 14:01 44.86653 19.55455 33146 ft 458 kts 181°
2026-04-22 14:02 44.80269 19.55597 33144 ft 458 kts 182°
2026-04-22 14:02 44.73894 19.55731 33152 ft 458 kts 182°
2026-04-22 14:03 44.67511 19.55867 33155 ft 459 kts 182°
2026-04-22 14:03 44.61083 19.56016 33135 ft 459 kts 182°
2026-04-22 14:04 44.54694 19.56146 33154 ft 459 kts 182°
2026-04-22 14:04 44.48311 19.56280 33168 ft 459 kts 182°
2026-04-22 14:05 44.41886 19.56419 33143 ft 458 kts 183°
2026-04-22 14:06 44.32279 19.56635 33145 ft 458 kts 183°
2026-04-22 14:06 44.25901 19.56784 33131 ft 458 kts 183°
2026-04-22 14:07 44.19439 19.56926 33132 ft 459 kts 184°
2026-04-22 14:07 44.13046 19.57050 33135 ft 460 kts 184°
2026-04-22 14:08 44.06604 19.57175 33121 ft 460 kts 184°
2026-04-22 14:08 44.00208 19.57322 33133 ft 460 kts 184°
2026-04-22 14:09 43.93804 19.57467 33152 ft 460 kts 184°
2026-04-22 14:09 43.87376 19.57605 33154 ft 459 kts 184°
2026-04-22 14:10 43.80975 19.57738 33137 ft 459 kts 185°
2026-04-22 14:10 43.74533 19.57861 33146 ft 459 kts 185°
2026-04-22 14:11 43.68142 19.57995 33147 ft 460 kts 185°
2026-04-22 14:11 43.61735 19.58140 33131 ft 460 kts 185°
2026-04-22 14:12 43.55335 19.58283 33136 ft 461 kts 185°
2026-04-22 14:12 43.48921 19.58413 33143 ft 461 kts 185°
2026-04-22 14:13 43.42470 19.58556 33134 ft 460 kts 186°
2026-04-22 14:13 43.36122 19.58687 33133 ft 459 kts 186°
2026-04-22 14:14 43.30771 19.58794 33137 ft 459 kts 186°
2026-04-22 14:14 43.24339 19.58935 33117 ft 460 kts 186°
2026-04-22 14:15 43.17934 19.59068 33131 ft 460 kts 186°
2026-04-22 14:15 43.11534 19.59201 33126 ft 460 kts 186°
2026-04-22 14:16 43.05166 19.59334 33122 ft 459 kts 186°
2026-04-22 14:16 42.98580 19.59470 33123 ft 459 kts 186°
2026-04-22 14:17 42.92226 19.59601 33104 ft 459 kts 186°
2026-04-22 14:17 42.85729 19.59721 33083 ft 458 kts 187°
2026-04-22 14:18 42.79363 19.59843 33073 ft 458 kts 187°
2026-04-22 14:18 42.72965 19.59983 33068 ft 459 kts 186°
2026-04-22 14:19 42.66556 19.60121 33047 ft 458 kts 187°
2026-04-22 14:19 42.60185 19.60248 33052 ft 457 kts 187°
2026-04-22 14:20 42.50642 19.60390 32997 ft 456 kts 189°
2026-04-22 14:20 42.44323 19.60163 33023 ft 454 kts 191°
2026-04-22 14:21 42.34876 19.59645 33014 ft 453 kts 191°
2026-04-22 14:22 42.25342 19.59274 32998 ft 453 kts 191°
2026-04-22 14:23 42.15848 19.58929 33003 ft 453 kts 191°
2026-04-22 14:23 42.09559 19.58683 32976 ft 452 kts 192°
2026-04-22 14:24 42.03260 19.58431 32988 ft 453 kts 192°
2026-04-22 14:24 41.96959 19.58186 32991 ft 453 kts 192°
2026-04-22 14:25 41.90661 19.57945 32959 ft 454 kts 192°
2026-04-22 14:25 41.84325 19.57705 32962 ft 456 kts 192°
2026-04-22 14:26 41.77976 19.57465 32978 ft 457 kts 192°
2026-04-22 14:26 41.71621 19.57213 32944 ft 457 kts 193°
2026-04-22 14:27 41.65250 19.56973 32947 ft 458 kts 192°
2026-04-22 14:27 41.58874 19.56735 32958 ft 459 kts 192°
2026-04-22 14:28 41.52495 19.56491 32914 ft 458 kts 193°
2026-04-22 14:28 41.46123 19.56245 32977 ft 458 kts 193°
2026-04-22 14:29 41.39747 19.56006 32989 ft 458 kts 193°
2026-04-22 14:29 41.33378 19.55774 32990 ft 458 kts 193°
2026-04-22 14:30 41.27017 19.55539 32954 ft 457 kts 193°
2026-04-22 14:30 41.20650 19.55291 32976 ft 457 kts 193°
2026-04-22 14:31 41.14250 19.55047 32989 ft 457 kts 193°
2026-04-22 14:31 41.07887 19.54808 32991 ft 457 kts 193°
2026-04-22 14:32 41.01534 19.54566 32994 ft 457 kts 193°
2026-04-22 14:32 40.95166 19.54325 32995 ft 457 kts 193°
2026-04-22 14:33 40.88808 19.54090 32952 ft 458 kts 193°
2026-04-22 14:33 40.82408 19.53860 32972 ft 459 kts 193°
2026-04-22 14:34 40.76007 19.53629 32970 ft 458 kts 193°
2026-04-22 14:34 40.70711 19.53429 32927 ft 459 kts 193°
2026-04-22 14:35 40.64293 19.53178 32986 ft 462 kts 192°
2026-04-22 14:35 40.57828 19.53235 32989 ft 475 kts 182°
2026-04-22 14:36 40.51334 19.53147 32953 ft 458 kts 204°
2026-04-22 14:36 40.45097 19.51156 32987 ft 459 kts 205°
2026-04-22 14:37 40.38896 19.49122 32983 ft 459 kts 205°
2026-04-22 14:37 40.32657 19.47082 32978 ft 459 kts 205°
2026-04-22 14:38 40.26469 19.45048 32954 ft 461 kts 205°
2026-04-22 14:38 40.20071 19.43958 32979 ft 478 kts 182°
2026-04-22 14:38 40.16782 19.44977 32977 ft 490 kts 171°
2026-04-22 14:39 40.13528 19.46297 32961 ft 490 kts 171°
2026-04-22 14:39 40.07047 19.48909 32974 ft 489 kts 171°
2026-04-22 14:40 39.97198 19.52816 32948 ft 490 kts 171°
2026-04-22 14:40 39.90650 19.55407 32948 ft 490 kts 171°
2026-04-22 14:41 39.84083 19.57980 32952 ft 492 kts 171°
2026-04-22 14:41 39.77549 19.60548 32949 ft 490 kts 170°
2026-04-22 14:42 39.70627 19.63299 32948 ft 490 kts 170°
2026-04-22 14:42 39.64389 19.65755 32924 ft 489 kts 170°
2026-04-22 14:43 39.57881 19.68297 32940 ft 488 kts 170°
2026-04-22 14:43 39.51375 19.70836 32951 ft 488 kts 170°
2026-04-22 14:44 39.44847 19.73130 32959 ft 484 kts 175°
2026-04-22 14:44 39.38266 19.74933 32930 ft 482 kts 175°
2026-04-22 14:45 39.31685 19.76615 32951 ft 482 kts 176°
2026-04-22 14:45 39.25103 19.78322 32968 ft 482 kts 175°
2026-04-22 14:46 39.18487 19.80084 32951 ft 482 kts 175°
2026-04-22 14:46 39.11830 19.81858 32951 ft 494 kts 175°
2026-04-22 14:47 39.05083 19.83645 32936 ft 495 kts 175°
2026-04-22 14:47 39.01692 19.84545 31969 ft 488 kts 175°
2026-04-22 14:47 38.98390 19.85421 30857 ft 480 kts 175°
2026-04-22 14:48 38.95154 19.86277 29808 ft 470 kts 175°
2026-04-22 14:48 38.91985 19.87113 28636 ft 460 kts 175°
2026-04-22 14:48 38.88871 19.87930 27826 ft 455 kts 175°
2026-04-22 14:48 38.85798 19.88734 27499 ft 446 kts 175°
2026-04-22 14:49 38.82777 19.89526 27052 ft 441 kts 175°
2026-04-22 14:49 38.79788 19.90309 26599 ft 436 kts 175°
2026-04-22 14:49 38.76836 19.91087 26174 ft 431 kts 175°
2026-04-22 14:49 38.73910 19.91849 25664 ft 428 kts 176°
2026-04-22 14:50 38.71001 19.92602 25254 ft 424 kts 175°
2026-04-22 14:50 38.67960 19.93392 24761 ft 423 kts 175°
2026-04-22 14:50 38.65087 19.94142 24357 ft 419 kts 175°
2026-04-22 14:50 38.62236 19.94889 23923 ft 418 kts 175°
2026-04-22 14:51 38.59384 19.95631 23445 ft 417 kts 175°
2026-04-22 14:51 38.56547 19.96365 22935 ft 415 kts 175°
2026-04-22 14:51 38.53724 19.97097 22456 ft 412 kts 175°
2026-04-22 14:51 38.50923 19.97833 21962 ft 410 kts 175°
2026-04-22 14:52 38.48145 19.98554 21545 ft 405 kts 175°
2026-04-22 14:52 38.45400 19.99262 21184 ft 399 kts 175°
2026-04-22 14:52 38.42700 19.99960 20827 ft 393 kts 175°
2026-04-22 14:52 38.40042 20.00649 20475 ft 387 kts 175°
2026-04-22 14:53 38.37425 20.01330 20132 ft 381 kts 175°
2026-04-22 14:53 38.34841 20.02001 19789 ft 376 kts 175°
2026-04-22 14:53 38.32285 20.02661 19450 ft 374 kts 175°
2026-04-22 14:53 38.29745 20.03318 19116 ft 371 kts 175°
2026-04-22 14:54 38.28038 20.03757 18888 ft 370 kts 175°
2026-04-22 14:54 38.25526 20.04400 18542 ft 367 kts 175°
2026-04-22 14:54 38.23034 20.05041 18162 ft 365 kts 175°
2026-04-22 14:54 38.20557 20.05680 17682 ft 362 kts 175°
2026-04-22 14:55 38.18095 20.06313 17201 ft 360 kts 175°
2026-04-22 14:55 38.15646 20.06941 16741 ft 358 kts 175°
2026-04-22 14:55 38.13211 20.07566 16281 ft 356 kts 175°
2026-04-22 14:55 38.10787 20.08187 15827 ft 354 kts 174°
2026-04-22 14:56 38.08387 20.08803 15502 ft 350 kts 174°
2026-04-22 14:56 38.06005 20.09415 15260 ft 349 kts 174°
2026-04-22 14:56 38.03631 20.10023 14993 ft 347 kts 174°
2026-04-22 14:56 38.01267 20.10629 14756 ft 346 kts 174°
2026-04-22 14:57 37.98905 20.11237 14515 ft 345 kts 173°
2026-04-22 14:57 37.96647 20.12311 14283 ft 354 kts 151°
2026-04-22 14:57 37.94864 20.14470 14034 ft 359 kts 124°
2026-04-22 14:57 37.93919 20.17376 13799 ft 358 kts 98°
2026-04-22 14:58 37.93973 20.20487 13539 ft 351 kts 72°
2026-04-22 14:58 37.94755 20.23389 13274 ft 349 kts 68°
2026-04-22 14:58 37.95188 20.26427 13005 ft 353 kts 86°
2026-04-22 14:58 37.94988 20.29493 12740 ft 348 kts 101°
2026-04-22 14:59 37.94265 20.32396 12355 ft 345 kts 115°
2026-04-22 14:59 37.93265 20.35191 11959 ft 343 kts 115°
2026-04-22 14:59 37.92299 20.37944 11563 ft 341 kts 114°
2026-04-22 14:59 37.91346 20.40683 11180 ft 339 kts 114°
2026-04-22 15:00 37.90400 20.43413 10787 ft 338 kts 114°
2026-04-22 15:00 37.89459 20.46126 10416 ft 336 kts 114°
2026-04-22 15:00 37.88517 20.48833 10098 ft 332 kts 114°
2026-04-22 15:00 37.87582 20.51507 9851 ft 326 kts 115°
2026-04-22 15:01 37.86669 20.54114 9527 ft 322 kts 115°
2026-04-22 15:01 37.86028 20.56804 9105 ft 320 kts 92°
2026-04-22 15:01 37.86430 20.59498 8707 ft 309 kts 59°
2026-04-22 15:01 37.87760 20.61547 8280 ft 297 kts 32°
2026-04-22 15:02 37.89463 20.62973 7890 ft 294 kts 30°
2026-04-22 15:02 37.91067 20.64513 7508 ft 295 kts 36°
2026-04-22 15:02 37.92582 20.66313 7208 ft 293 kts 42°
2026-04-22 15:02 37.93936 20.68238 6861 ft 293 kts 47°
2026-04-22 15:03 37.95194 20.70347 6278 ft 301 kts 52°
2026-04-22 15:03 37.96318 20.72601 5804 ft 304 kts 57°
2026-04-22 15:03 37.97294 20.74971 5379 ft 304 kts 63°
2026-04-22 15:03 37.97906 20.77520 4957 ft 304 kts 86°
2026-04-22 15:04 37.97446 20.80097 4549 ft 286 kts 122°
2026-04-22 15:04 37.96089 20.81738 4238 ft 261 kts 156°
2026-04-22 15:04 37.94456 20.82406 3966 ft 237 kts 171°
2026-04-22 15:04 37.92902 20.82725 3679 ft 215 kts 175°
2026-04-22 15:05 37.91475 20.82992 3381 ft 195 kts 174°
2026-04-22 15:05 37.90181 20.83282 3132 ft 184 kts 172°
2026-04-22 15:05 37.88950 20.83603 2902 ft 176 kts 171°
2026-04-22 15:05 37.87794 20.83937 2669 ft 166 kts 168°
2026-04-22 15:06 37.87065 20.84161 2508 ft 159 kts 169°
2026-04-22 15:06 37.85664 20.84612 2206 ft 154 kts 167°
2026-04-22 15:06 37.84621 20.84959 1980 ft 151 kts 167°
2026-04-22 15:06 37.83609 20.85302 1756 ft 150 kts 167°
2026-04-22 15:07 37.82610 20.85646 1540 ft 148 kts 167°
2026-04-22 15:07 37.81614 20.85980 1326 ft 147 kts 167°
2026-04-22 15:07 37.80618 20.86341 1077 ft 147 kts 165°
2026-04-22 15:07 37.79653 20.86734 885 ft 145 kts 164°
2026-04-22 15:08 37.78678 20.87123 675 ft 144 kts 165°
2026-04-22 15:08 37.77706 20.87460 422 ft 141 kts 164°
2026-04-22 15:08 37.76757 20.87805 227 ft 138 kts 163°
2026-04-22 15:08 37.75832 20.88149 56 ft 139 kts 162°
2026-04-22 15:09 37.74988 20.88466 18 ft 93 kts 164°
2026-04-22 15:09 37.74656 20.88583 21 ft 13 kts 181°
2026-04-22 15:09 37.74601 20.88607 21 ft 4 kts 84°
2026-04-22 15:09 37.74615 20.88606 23 ft 4 kts 342°
2026-04-22 15:10 37.74685 20.88580 21 ft 17 kts 343°
2026-04-22 15:10 37.74826 20.88527 20 ft 24 kts 343°
2026-04-22 15:10 37.74987 20.88470 20 ft 22 kts 345°
2026-04-22 15:10 37.75082 20.88503 20 ft 10 kts 35°
2026-04-22 15:11 37.75117 20.88526 20 ft 7 kts 15°
2026-04-22 15:11 37.75157 20.88521 23 ft 10 kts 345°
2026-04-22 15:11 37.75243 20.88490 20 ft 15 kts 344°
2026-04-22 15:11 37.75310 20.88486 20 ft 7 kts 44°
2026-04-22 15:12 37.75324 20.88527 20 ft 5 kts 72°
2026-04-22 15:12 37.75330 20.88552 22 ft 0 kts 73°